Regional Weather Roundup
Issued by NWS Newport/Morehead, NC

Current Version | Previous Version | Text Only | Print | Product List | Glossary On
Versions: 1 2 3 4 5 6 7 8 9 10 11 12 13 14 15 16 17 18 19 20 21 22 23 24 25 26 27 28 29 30 31 32 33 34 35 36 37 38 39 40 41 42 43 44 45 46 47 48 49 50
000
ASUS42 KMHX 270512
RWRMHX
WEATHER ROUNDUP FOR EASTERN NORTH CAROLINA
NATIONAL WEATHER SERVICE NEWPORT/MOREHEAD CITY NC
100 AM EDT FRI MAR 27 2015

NOTE: "FAIR" INDICATES FEW OR NO CLOUDS BELOW 12,000 FEET
WITH NO SIGNIFICANT WEATHER AND/OR OBSTRUCTIONS TO VISIBILITY

NCZ015>017-031-032-045>047-102-103-270600-
NORTH COAST

CITY           SKY/WX    TMP DP  RH WIND       PRES   REMARKS
EDENTON        CLOUDY    63  56  79 S12       29.75F
ELIZABETH CITY MOCLDY    63  56  78 S10G18    29.74F
KITTY HAWK     MOCLDY    65  56  74 SW10      29.75F
MANTEO         MOCLDY    62  56  79 SW9       29.77S

$$

NCZ045>047-081-094-103-104-270600-
CENTRAL COAST

CITY           SKY/WX    TMP DP  RH WIND       PRES   REMARKS
FRISCO         CLOUDY    65  59  81 SW15      29.77F
SWANQUARTER      N/A     63 N/A N/A SW12      29.74S

$$

NCZ095-097-098-100-101-270600-
SOUTHERN COAST

CITY           SKY/WX    TMP DP  RH WIND       PRES   REMARKS
BEAUFORT       CLOUDY    64  62  93 SW13      29.79S
CEDAR ISLAND     N/A     66 N/A N/A S7G17     29.82S
JACKSONVILLE   CLOUDY    65  62  90 S10G21    29.77F
PINEY ISLAND   CLOUDY   N/A N/A N/A SW13      29.78F
WILMINGTON     CLOUDY    65  62  90 S9        29.77F


$$

NCZ011>013-027>030-043-044-078>080-089-090>093-098-270600-
COASTAL PLAIN

CITY           SKY/WX    TMP DP  RH WIND       PRES   REMARKS
AHOSKIE        CLOUDY    64  57  76 S7        29.73S
CLINTON        CLOUDY    64  59  82 S5        29.76S
ELIZABETHTOWN  CLOUDY    66  56  69 S7        29.75F
GOLDSBORO      CLOUDY    65  65  98 S2        29.73S
GREENVILLE     CLOUDY    64  57  77 SW9       29.78S
HAVELOCK       CLOUDY    67  58  72 S8        29.78F
KENANSVILLE    CLOUDY    64  55  72 CALM      29.77S
KINSTON        CLOUDY    65  56  73 S12       29.77S
NEW BERN       CLOUDY    65  59  81 S8        29.78F
RICHLANDS      CLOUDY    61  54  77 S7        29.78F
ROCKY MOUNT    CLOUDY    66  58  75 S10       29.73S
WASHINGTON     CLOUDY    64  55  74 S5        29.76S
WHITEVILLE     CLOUDY    64  56  76 S6        29.76F

$$

AMZ130-135-150-152-154-156-158-170-250-252-270-ANZ085-086-088-633-658-670-270600-
MARINE OBSERVATIONS

STATION/POSITION TIME  TEMP    WIND        PRES    WAVE   SWELL
                       AIR SEA DIR/SP/G            HT/PER HT/PER
                 (UTC) (F)     (DEG/KT/KT) (MB)    (FT/S) (FT/S)
CHESAPEAKE LIGHT 0400   55     200/ 28/ 29 1006.2
64 E VA BEACH    0450   56 51  210/ 16/ 17 1006.9    9/ 8   7/ 8
DUCK             0400          200/ 12/ 16 1006.7
2 E DUCK         0411      42                N/A     4/ 8   2/11
10 NE DUCK       NOT AVBL
OREGON INLET     0400   60 60  200/ 14/ 17 1007.8
HATTERAS CG      0400   66 60  200/  8/ 12 1009.0
CAPE LOOKOUT     0500   65     200/ 10/ 12 1008.5
BEAUFORT LAB     0400   61 58  190/ 11/ 12 1007.8
27 SE WRIGHTSVLE 0400   64 64  220/ 12/ 14 1011.3
5 SE WRIGHTSVLE  0400   61 56  200/ 12/ 14 1008.7
225 S CAPE HAT   0450   70 69  190/ 21/ 25 1013.3    8/ 7
41 SE CHARLESTON 0450   70 71  200/ 14/ 16 1009.0    5/ 8   3/ 8

$$



USA.gov is the U.S. government's official web portal to all federal, state and local government web resources and services.